Location: Bukit Batu
(2.2667°N, 113.7167°E)
Time: 20:24:28
(UTC+00:00)

Daily predictions for brighter satellites

Satellite Brightness Start Highest point End
(mag) Time Altitude Azimuth Time Altitude Azimuth Time Altitude Azimuth
Genesis I 3.3 12:02:40 10° NNW 12:06:41 74° WSW 12:07:27 55° S
Meteor 1-27 4.5 12:07:06 10° NNE 12:12:40 48° E 12:12:53 48° E
YAOGAN 1 4.2 12:09:57 10° SSW 12:13:49 32° WSW 12:17:41 10° NW
CSL-04 Rocket 3.6 12:18:34 46° SSE 12:20:20 86° ENE 12:25:48 10° NNW
Cosmos 1812 Rocket 3.9 12:17:53 10° NNW 12:22:17 65° W 12:23:09 52° SSW
GPS 2-15 Rocket1 3.8 12:17:39 10° W 12:22:19 45° SSW 12:22:19 45° SSW
Cosmos-2242 4.3 12:20:31 10° N 12:22:46 30° NNE 12:22:46 30° NNE
Cosmos 1825 3.5 12:31:02 38° WNW 12:31:02 38° WNW 12:34:18 10° NNW
SPELTRA 4.2 12:31:05 10° WSW 12:32:39 25° SW 12:32:39 25° SW
MetOp-A 4.2 12:33:45 64° SSW 12:34:27 74° WSW 12:39:46 10° NNW
CENTAUR R/B 3.9 12:27:20 10° N 12:34:55 36° ENE 12:34:55 36° ENE
ARIANE 5 R/B 3.5 12:07:13 10° W 12:36:33 56° SSW 12:37:18 53° SSE
USA 267 3.5 12:31:06 10° NNE 12:37:32 65° NW 12:44:01 10° SW
Delta 2 Rocket 4.1 12:37:18 10° WNW 12:43:07 59° SSW 12:43:07 59° SSW
Cosmos 2082 Rocket 4.1 12:52:05 10° SW 12:56:45 27° WNW 13:01:26 10° NNW
Ariane H10+ 4.4 12:50:22 10° W 12:59:24 88° S 13:09:53 43° E
Ariane H10 4.4 19:49:42 70° NNW 19:50:15 72° N 20:37:14 10° E
Ariane H10 4.4 19:49:42 70° NNW 19:50:16 72° N 20:37:14 10° E
Okean 1 Rocket 4.4 20:19:58 35° NE 20:19:58 35° NE 20:22:44 10° NNE
Cosmos 1943 4.0 20:14:21 10° N 20:19:48 49° ENE 20:25:15 10° SSE
Cosmos 2239 Rocket 4.5 20:21:36 68° NNW 20:21:36 68° NNW 20:27:06 10° N
Cosmos 2278 Rocket 3.3 20:24:45 26° SSE 20:27:16 40° ESE 20:32:30 10° NE
ALOS 4.1 20:23:31 10° N 20:25:07 21° N 20:25:07 21° N
Chandra Rocket (1) 3.8 20:21:08 10° NW 20:28:32 34° NNE 20:31:44 10° E
ISO 3.1 20:28:51 62° SSW 20:29:21 65° S 20:33:14 10° E
ARIANE 5 DEB (SYLDA) 4.2 20:28:14 54° W 20:30:18 88° N 21:17:14 10° E
ARIANE 5 DEB (SYLDA) 4.2 20:28:13 54° W 20:30:18 88° N 21:17:14 10° E
Cosmos 1758 4.3 20:33:37 43° NE 20:33:37 43° NE 20:36:27 10° NNE
METEOR-M 4.1 20:29:46 10° N 20:34:42 68° NW 20:34:42 68° NW
BLOCK DM-SL R/B 3.4 20:36:49 62° SE 20:36:49 62° SE 20:41:26 10° E
Meteosat 1 Rocket2 4.1 20:39:20 32° SE 20:39:20 32° SE 20:41:43 10° ESE
Cosmos 1535 Rocket 4.4 20:41:07 29° S 20:44:40 86° W 20:51:03 10° N
Cosmos 1025 Rocket 4.3 20:46:59 10° NNW 20:49:09 28° NNW 20:49:09 28° NNW
Cosmos 1346 Rocket 3.1 20:47:52 10° N 20:51:42 61° E 20:54:56 14° SSE
SL-14 R/B 4.1 20:50:12 10° NNW 20:52:44 37° NNW 20:52:44 37° NNW
Meteor 1-24 Rocket 4.4 20:49:15 10° N 20:54:47 54° E 21:00:08 10° SSE
OE (NEXTSAT) 4.3 20:58:54 74° ESE 20:58:54 74° ESE 21:02:14 10° NE
Cosmos 1934 Rocket 4.0 20:57:18 37° SW 20:59:14 51° W 21:05:08 10° NNW
GMS 1 Rocket 4.4 21:01:21 51° WNW 21:01:54 57° NNW 21:06:19 10° NE
Cosmos 1605 Rocket 4.0 20:57:09 10° S 21:03:34 86° W 21:09:58 10° N
CZ-4C R/B 3.1 20:57:19 10° NNW 21:05:53 76° WSW 21:14:24 10° SSE
Meteor 2-5 Rocket 3.6 21:01:23 10° N 21:07:10 82° W 21:12:51 10° S
Cosmos 1603 3.9 21:03:26 10° NNW 21:08:47 45° WSW 21:14:12 10° S
ARIANE 5 DEB (SYLDA) 4.4 21:08:36 32° WSW 21:11:07 69° S 21:30:28 10° E
Cosmos 1763 Rocket 3.4 21:06:28 10° NNW 21:11:43 89° E 21:16:55 10° SSE
BLOCK DM-SL R/B 4.3 20:57:34 20° W 21:14:13 80° S 21:18:39 10° E
Cosmos 1486 Rocket 4.0 21:13:36 21° SSW 21:17:03 60° WNW 21:22:10 10° N
Cosmos 1455 Rocket 3.1 21:13:30 10° S 21:17:58 86° E 21:22:24 10° N
YAOGAN 6 2.9 21:15:39 10° NNE 21:19:16 68° E 21:22:56 10° S
Atlas Centaur 2 3.0 21:18:36 26° WSW 21:20:41 33° SSW 21:26:43 10° SE
Ariane H10+ 3.9 21:19:38 23° SW 21:23:16 55° SSE 21:57:28 10° E
CZ-2C R/B 3.8 21:22:37 10° SSE 21:23:35 11° SSE 21:24:33 10° SE
Cosmos 44 3.5 21:21:19 10° NW 21:25:42 40° WSW 21:29:52 10° S
Meteor 1-16 Rocket 4.1 21:21:49 10° S 21:27:24 74° W 21:32:46 10° N
USA 281 4.0 21:22:04 10° SE 21:28:28 55° ENE 21:34:50 10° N
CZ-4B R/B 4.4 21:25:53 10° N 21:29:59 45° WNW 21:34:04 11° SSW
DELTA-4 R/B 4.1 21:28:06 21° WSW 21:31:27 81° SSE 21:55:41 10° ENE
Cosmos 1943 Rocket 4.5 21:27:40 10° SSE 21:31:55 23° ESE 21:36:08 10° NE
SJ 16-02 4.3 21:35:13 10° SE 21:37:31 14° E 21:39:48 10° ENE
Ariane H10 3.2 21:35:14 14° W 21:41:55 45° SSW 21:44:40 10° ESE
SeaSat 1 3.0 21:38:27 10° N 21:42:59 38° WNW 21:47:32 10° SW
Cosmos 1441 Rocket 3.6 21:39:06 10° N 21:43:01 70° E 21:46:58 10° SSE
Cosmos 1184 Rocket 3.2 21:40:33 10° NNW 21:43:31 37° W 21:46:32 10° SSW
Cosmos 540 Rocket 3.4 21:39:26 10° NNW 21:44:36 82° W 21:49:45 10° S
MOS 1 Rocket 4.2 21:41:21 10° SSW 21:45:17 27° W 21:49:25 10° NW
IRAS Rocket 4.3 21:41:03 10° SSE 21:46:38 87° ENE 21:52:08 10° NNW
Cosmos 1300 3.5 21:43:25 10° S 21:47:09 55° E 21:50:51 10° NNE
SL-24 R/B - RUBIN 2 3.5 21:43:19 10° NNW 21:47:32 58° WSW 21:51:43 10° S
Meteor 1-31 Rocket 4.1 21:46:05 10° NNW 21:49:02 21° WNW 21:52:02 10° SW
Cosmos 2123 Rocket 4.1 21:45:01 10° NNW 21:50:57 53° W 21:56:57 10° SSW
DELTA 2 R/B (1) 3.9 21:46:42 10° SW 21:52:12 66° SE 21:57:43 10° NE
USA 290 3.9 21:51:13 10° WNW 21:53:11 15° WSW 21:55:11 10° SW
SL-4 R/B 2.7 21:49:53 10° SSW 21:53:45 52° SE 21:57:56 10° NE
BLOCK-DM UPPERSTAGE 4.1 21:41:23 10° W 21:54:08 78° S 21:58:09 10° E
Cosmos 1459 Rocket 4.0 21:51:09 10° S 21:57:14 87° E 22:03:15 10° N
CZ-4C R/B 3.1 21:54:25 10° SSE 21:58:01 90° WNW 22:01:35 10° NNW
Cosmos 921 Rocket 4.3 21:54:51 10° N 21:59:11 48° E 22:03:30 10° SSE
Aurora 2 Rocket 3.9 21:50:35 10° WNW 21:59:30 83° NNE 22:05:41 10° ESE
Cosmos 1953 3.8 21:56:50 10° SW 21:59:40 18° W 22:02:29 10° NW
CRYOSAT 2 4.4 21:56:04 10° N 22:00:52 60° W 22:05:40 10° SSW
Cosmos 2173 Rocket 4.1 21:56:20 10° S 22:02:40 80° W 22:09:02 10° N
Cosmos 1354 Rocket 4.4 21:58:31 10° SSW 22:03:33 44° WNW 22:08:35 10° N
Ariane H10+ 4.1 21:51:00 10° W 22:03:56 51° SSW 22:07:06 10° ESE
Envisat 3.9 22:02:14 10° NNW 22:06:33 29° WNW 22:10:53 10° SW
